Location: Góry Miechowskie
(50.3599°N, 20.1803°E)
Time: 13:25:22
(UTC+00:00)

CENTAUR R/B - Pass Details

Date: 15 June 2024
Orbit: 666 x 1519 km, 63.4° (Epoch: 15 July)

Event Time Altitude Azimuth Distance (km) Brightness Sun altitude
Exits shadow 00:12:03 15° 229° (SW) 2,175 3.8 -13.5°
Maximum altitude 00:16:59 79° 315° (NW) 1,021 2.6 -13.2°
Drops below altitude 10° 00:24:21 10° 43° (NE) 3,114 6.4 -12.8°
Sets 00:27:25 0° 45° (NE) 4,211 7.3 -12.6°
